Content
SEND FEEDBACK

Daily
Averages
Monthly
Summary
United States of America

SUNDANCE, WYOMING


Home > North America > United States > Wyoming
Elevation: 4908 feet     Latitude: 44 24N     Longitude: 104 21W

WEATHER
 
SELECT A DAY
Number of Records: 227,354;   Date Range: 1/2/95 - 7/29/14
 
SHARE

PRINT THIS DATA

[ ← Previous Day ]
WEATHER ALMANAC - APRIL 10, 2014
[ Next Day → ]
[ °C ]   °F
Weather ElementAverageHighLow
Temperature47.8 °F57.2 °F (2:15 pm)35.6 °F (7:55 am)
Dewpoint25.2 °F32 °F (12:35 am)19.4 °F (11:35 am)
Humidity43 %66 % (1:55 am)28 % (11:35 am)
Barometer29.95 in29.99 in (8:15 am)29.90 in (5:55 pm)
Wind Speed8.4 mph17.3 mph (4:15 pm)
Wind Gust29.9 mph (3:15 pm)
Weather ElementAverage
Visibility10 mi
Wind DirectionWSW (249.4 °)

Weather ElementTotal
Precipitation---
Heating Degree Days18.6 (Base 65)
Averaged from 70 records on April 10, 2014
WEATHER CONDITIONS BREAKOUT
WIND DIRECTION BREAKOUT
WEATHER BY HOUR - APRIL 10, 2014
[ °C ]   °F
Local TimeTemperatureDewpointHumidityBarometerVisibilityWind DirectionWind SpeedGust SpeedPrecipitationEventsConditions
12:35 AM44.6 °F32.0 °F61 %29.94 in10.0 miWNW (290°)8.1 mphMostly Cloudy
12:55 AM44.6 °F32.0 °F61 %29.94 in10.0 miWNW (300°)8.1 mphMostly Cloudy
1:15 AM44.6 °F32.0 °F61 %29.95 in10.0 miWNW (290°)9.2 mphPartly Cloudy
1:35 AM44.6 °F32.0 °F61 %29.95 in10.0 miWest (270°)10.4 mphPartly Cloudy
1:55 AM42.8 °F32.0 °F66 %29.95 in10.0 miWest (270°)9.2 mphPartly Cloudy
2:15 AM41.0 °F30.2 °F65 %29.96 in10.0 miWest (270°)8.1 mphClear
2:35 AM41.0 °F28.4 °F61 %29.96 in10.0 miWest (270°)6.9 mphClear
2:55 AM41.0 °F26.6 °F57 %29.96 in10.0 miWNW (290°)6.9 mphClear
3:15 AM41.0 °F26.6 °F57 %29.96 in10.0 miNW (310°)6.9 mphClear
3:35 AM41.0 °F26.6 °F57 %29.96 in10.0 miWNW (300°)5.8 mphPartly Cloudy
3:55 AM41.0 °F24.8 °F53 %29.97 in10.0 miWest (280°)6.9 mphMostly Cloudy
4:15 AM41.0 °F26.6 °F57 %29.97 in10.0 miWest (280°)5.8 mphOvercast
4:35 AM39.2 °F26.6 °F61 %29.97 in10.0 miWest (280°)5.8 mphOvercast
4:55 AM39.2 °F24.8 °F56 %29.97 in10.0 miWest (260°)8.1 mphPartly Cloudy
5:15 AM39.2 °F24.8 °F56 %29.98 in10.0 miWest (260°)6.9 mphMostly Cloudy
5:35 AM39.2 °F23.0 °F52 %29.98 in10.0 miWest (260°)5.8 mphMostly Cloudy
5:55 AM37.4 °F23.0 °F56 %29.98 in10.0 miWSW (250°)5.8 mphPartly Cloudy
6:15 AM37.4 °F23.0 °F56 %29.98 in10.0 miWSW (240°)4.6 mphScattered Clouds
6:35 AM39.2 °F23.0 °F52 %29.97 in10.0 miWest (280°)3.5 mphPartly Cloudy
6:55 AM37.4 °F24.8 °F60 %29.97 in10.0 miWNW (290°)3.5 mphClear
7:15 AM37.4 °F23.0 °F56 %29.97 in10.0 miWSW (240°)3.5 mphClear
7:35 AM37.4 °F21.2 °F52 %29.98 in10.0 miWSW (240°)4.6 mphClear
7:55 AM35.6 °F23.0 °F60 %29.98 in10.0 miWSW (250°)3.5 mphClear
8:15 AM39.2 °F24.8 °F56 %29.99 in10.0 miCalmClear
8:35 AM39.2 °F24.8 °F56 %29.99 in10.0 miCalmClear
8:55 AM44.6 °F24.8 °F46 %29.99 in10.0 miCalmClear
9:15 AM46.4 °F23.0 °F40 %29.99 in10.0 miWest (260°)4.6 mphClear
9:35 AM46.4 °F21.2 °F37 %29.99 in10.0 miCalmClear
9:55 AM48.2 °F21.2 °F34 %29.98 in10.0 miWest (270°)4.6 mphClear
10:15 AM50.0 °F21.2 °F32 %29.98 in10.0 miWNW (300°)3.5 mphClear
10:35 AM50.0 °F23.0 °F35 %29.98 in10.0 miWNW (290°)3.5 mphClear
10:55 AM50.0 °F23.0 °F35 %29.98 in10.0 miNW (320°)5.8 mphClear
11:15 AM51.8 °F23.0 °F33 %29.98 in10.0 miWNW (300°)9.2 mphClear
11:35 AM51.8 °F19.4 °F28 %29.98 in10.0 miNW (310°)6.9 mph18.4 mphClear
11:55 AM53.6 °F21.2 °F28 %29.98 in10.0 miNW (310°)10.4 mphClear
12:15 PM53.6 °F21.2 °F28 %29.97 in10.0 miNW (310°)9.2 mphClear
12:35 PM53.6 °F23.0 °F30 %29.97 in10.0 miWNW (290°)6.9 mphClear
12:55 PM55.4 °F23.0 °F29 %29.96 in10.0 miNW (310°)10.4 mph16.1 mphClear
1:15 PM53.6 °F23.0 °F30 %29.96 in10.0 miWNW (300°)12.7 mph21.9 mphClear
1:35 PM55.4 °F24.8 °F31 %29.95 in10.0 miWest (280°)13.8 mph20.7 mphPartly Cloudy
1:55 PM55.4 °F26.6 °F33 %29.95 in10.0 miWSW (250°)13.8 mph17.3 mphScattered Clouds
2:15 PM57.2 °F26.6 °F31 %29.94 in10.0 miWSW (240°)11.5 mph19.6 mphPartly Cloudy
2:35 PM55.4 °F28.4 °F36 %29.94 in10.0 miSW (230°)13.8 mph24.2 mphPartly Cloudy
2:55 PM57.2 °F28.4 °F33 %29.94 in10.0 miWSW (250°)15.0 mph23.0 mphScattered Clouds
3:15 PM57.2 °F26.6 °F31 %29.93 in10.0 miWest (260°)16.1 mph29.9 mphPartly Cloudy
3:35 PM55.4 °F24.8 °F31 %29.93 in10.0 miWSW (240°)15.0 mph28.8 mphClear
3:55 PM55.4 °F26.6 °F33 %29.92 in10.0 miWest (280°)10.4 mph21.9 mphClear
4:15 PM57.2 °F28.4 °F33 %29.92 in10.0 miWest (260°)17.3 mph25.3 mphClear
4:35 PM55.4 °F28.4 °F36 %29.92 in10.0 miWSW (250°)15.0 mph23.0 mphClear
4:55 PM55.4 °F28.4 °F36 %29.92 in10.0 miWSW (240°)15.0 mph21.9 mphClear
5:15 PM57.2 °F30.2 °F36 %29.91 in10.0 miWSW (240°)15.0 mph23.0 mphPartly Cloudy
5:35 PM55.4 °F28.4 °F36 %29.91 in10.0 miSW (230°)16.1 mph27.6 mphPartly Cloudy
5:55 PM57.2 °F28.4 °F33 %29.90 in10.0 miWSW (250°)10.4 mph18.4 mphClear
6:15 PM57.2 °F26.6 °F31 %29.90 in10.0 miWest (260°)12.7 mph18.4 mphPartly Cloudy
6:35 PM55.4 °F26.6 °F33 %29.90 in10.0 miWest (280°)16.1 mphPartly Cloudy
6:55 PM57.2 °F24.8 °F29 %29.90 in10.0 miWNW (300°)13.8 mph19.6 mphScattered Clouds
7:15 PM55.4 °F23.0 °F29 %29.90 in10.0 miWNW (300°)15.0 mph26.5 mphPartly Cloudy
7:35 PM55.4 °F23.0 °F29 %29.90 in10.0 miWNW (300°)17.3 mph21.9 mphClear
7:55 PM53.6 °F23.0 °F30 %29.90 in10.0 miWNW (300°)9.2 mphClear
8:15 PM53.6 °F23.0 °F30 %29.90 in10.0 miWNW (290°)13.8 mph17.3 mphClear
8:35 PM50.0 °F23.0 °F35 %29.91 in10.0 miWNW (290°)11.5 mphClear
8:55 PM50.0 °F23.0 °F35 %29.92 in10.0 miNorthClear
9:15 PM48.2 °F23.0 °F37 %29.93 in10.0 miWest (270°)9.2 mphClear
9:35 PM46.4 °F23.0 °F40 %29.94 in10.0 miWest (260°)4.6 mphClear
9:55 PM42.8 °F24.8 °F49 %29.94 in10.0 miWSW (240°)5.8 mphClear
10:15 PM46.4 °F23.0 °F40 %29.95 in10.0 miWSW (250°)5.8 mphClear
10:35 PM46.4 °F23.0 °F40 %29.95 in10.0 miWest (260°)4.6 mphClear
10:55 PM44.6 °F23.0 °F43 %29.96 in10.0 miWest (260°)4.6 mphClear
11:15 PM44.6 °F24.8 °F46 %29.95 in10.0 miCalmClear
11:55 PM41.0 °F24.8 °F53 %29.95 in10.0 miWest (260°)4.6 mphClear
Hourly data recorded from KSPF, located miles away from Sundance, Wyoming







STORIES FROM OUR PARTNERS